EW0259 Weather Reports


time (UTC)temp
C
wind
direction
speed
KPH
gust
KPH
rain 1hr
cm
rain 24hr
cm
rain mn
cm
humidity
%
barometer
mb
20260505014307 25 267 4.8 9.7 0.00 0.00 0.00 46 1010.9
20260505014234 25 267 4.8 9.7 0.00 0.00 0.00 46 1010.9
20260505013722 25 238 1.6 4.8 0.00 0.00 0.00 47 1010.9
20260505013310 25 143 1.6 3.2 0.00 0.00 0.00 46 1010.9
20260505012804 25 243 0.0 3.2 0.00 0.00 0.00 46 1010.9
20260505012225 25 303 1.6 6.4 0.00 0.00 0.00 45 1011.0
20260505011733 25 252 1.6 6.4 0.00 0.00 0.00 44 1011.1
20260505011301 26 313 1.6 4.8 0.00 0.00 0.00 43 1011.1
20260505011229 26 313 1.6 4.8 0.00 0.00 0.00 43 1011.1
20260505010737 26 49 1.6 4.8 0.00 0.00 0.00 43 1011.1
20260505010225 26 53 0.0 6.4 0.00 0.00 0.00 42 1011.2
20260505005732 26 355 1.6 6.4 0.00 0.00 0.00 41 1011.2
20260505005300 26 61 0.0 3.2 0.00 0.00 0.00 41 1011.3
20260505005228 26 61 0.0 3.2 0.00 0.00 0.00 41 1011.3
20260505004756 26 346 0.0 6.4 0.00 0.00 0.00 40 1011.1
20260505004724 26 346 0.0 6.4 0.00 0.00 0.00 40 1011.1
20260505004232 26 289 1.6 8.0 0.00 0.00 0.00 42 1011.2
20260505003740 26 193 1.6 8.0 0.00 0.00 0.00 39 1011.1
20260505003308 26 5 3.2 8.0 0.00 0.00 0.00 38 1011.0
20260505002723 26 85 3.2 6.4 0.00 0.00 0.00 39 1011.1
20260505002231 26 328 1.6 9.7 0.00 0.00 0.00 38 1011.2
20260505001731 26 313 4.8 9.7 0.00 0.00 0.00 37 1011.2
20260505001223 26 207 3.2 9.7 0.00 0.00 0.00 35 1011.1
20260505000731 26 277 3.2 6.4 0.00 0.00 0.00 34 1011.2
20260505000239 26 96 1.6 6.4 0.00 0.00 0.00 36 1011.2
20260504235726 26 155 3.2 8.0 0.00 0.00 0.00 34 1011.2
20260504235234 26 53 4.8 8.0 0.00 0.00 0.00 32 1011.2
20260504234722 26 42 3.2 8.0 0.00 0.00 0.00 31 1011.2
20260504234230 26 312 1.6 6.4 0.00 0.00 0.00 32 1011.4
20260504233738 26 86 3.2 14.5 0.00 0.00 0.00 32 1011.3
20260504233226 26 277 3.2 9.7 0.00 0.00 0.00 30 1011.3
20260504232733 26 157 1.6 12.9 0.00 0.00 0.00 33 1011.1
20260504232225 26 323 3.2 12.9 0.00 0.00 0.00 33 1011.2
20260504231733 26 297 3.2 8.0 0.00 0.00 0.00 34 1011.2
20260504231221 26 215 3.2 8.0 0.00 0.00 0.00 32 1011.4
20260504230729 26 145 1.6 11.3 0.00 0.00 0.00 30 1011.6
20260504230237 26 254 3.2 11.3 0.00 0.00 0.00 31 1011.8
20260504225724 26 165 4.8 11.3 0.00 0.00 0.00 31 1011.6
20260504225232 26 360 4.8 11.3 0.00 0.00 0.00 32 1011.7
20260504224740 26 298 1.6 11.3 0.00 0.00 0.00 33 1011.7
20260504224228 26 297 4.8 8.0 0.00 0.00 0.00 32 1011.8
20260504223740 26 237 3.2 9.7 0.00 0.00 0.00 32 1012.0
20260504223307 26 152 1.6 4.8 0.00 0.00 0.00 34 1011.9
20260504222723 26 262 1.6 12.9 0.00 0.00 0.00 33 1011.9
20260504222231 26 140 3.2 12.9 0.00 0.00 0.00 32 1012.0
20260504221739 26 219 3.2 8.0 0.00 0.00 0.00 34 1012.0
20260504221307 25 20 3.2 8.0 0.00 0.00 0.00 33 1012.1
20260504220804 25 271 3.2 6.4 0.00 0.00 0.00 34 1012.1
20260504220259 25 261 4.8 8.0 0.00 0.00 0.00 34 1012.1
20260504215735 25 284 1.6 8.0 0.00 0.00 0.00 35 1012.1
20260504215223 25 346 3.2 16.1 0.00 0.00 0.00 37 1012.2
20260504214731 25 311 8.0 16.1 0.00 0.00 0.00 35 1012.2
20260504214239 25 355 3.2 11.3 0.00 0.00 0.00 37 1012.3
20260504213727 25 184 1.6 11.3 0.00 0.00 0.00 38 1012.3
20260504213233 25 330 3.2 12.9 0.00 0.00 0.00 39 1012.3
20260504212724 24 334 4.8 12.9 0.00 0.00 0.00 39 1012.4
20260504212232 24 311 3.2 16.1 0.00 0.00 0.00 39 1012.5
20260504211739 23 270 9.7 16.1 0.00 0.00 0.00 38 1012.5
20260504211227 23 284 4.8 12.9 0.00 0.00 0.00 39 1012.5
20260504210755 23 270 3.2 16.1 0.00 0.00 0.00 38 1012.5
20260504210723 23 270 3.2 16.1 0.00 0.00 0.00 38 1012.5
20260504210311 23 337 4.8 11.3 0.00 0.00 0.00 41 1012.5
20260504210239 23 337 4.8 11.3 0.00 0.00 0.00 41 1012.5
20260504205726 23 263 3.2 12.9 0.00 0.00 0.00 41 1012.5
20260504205234 24 239 4.8 12.9 0.00 0.00 0.00 41 1012.5
20260504204722 23 22 1.6 16.1 0.00 0.00 0.00 45 1012.5
20260504204230 23 243 6.4 16.1 0.00 0.00 0.00 42 1012.5
20260504203737 23 303 1.6 8.0 0.00 0.00 0.00 44 1012.5
20260504203305 23 144 1.6 11.3 0.00 0.00 0.00 42 1012.5
20260504203233 23 144 1.6 11.3 0.00 0.00 0.00 42 1012.5
20260504202724 23 277 4.8 11.3 0.00 0.00 0.00 41 1012.5
20260504202232 23 323 6.4 11.3 0.00 0.00 0.00 43 1012.4
20260504201740 23 104 1.6 14.5 0.00 0.00 0.00 44 1012.4
20260504201228 23 265 4.8 14.5 0.00 0.00 0.00 46 1012.4
20260504200756 22 329 9.7 14.5 0.00 0.00 0.00 45 1012.4
20260504200313 22 311 4.8 14.5 0.00 0.00 0.00 45 1012.5
20260504200241 22 311 4.8 14.5 0.00 0.00 0.00 45 1012.5
20260504195728 23 281 6.4 14.5 0.00 0.00 0.00 44 1012.5
20260504195236 23 259 4.8 12.9 0.00 0.00 0.00 44 1012.8
20260504194724 23 146 3.2 9.7 0.00 0.00 0.00 45 1012.8
20260504194232 23 250 1.6 9.7 0.00 0.00 0.00 44 1012.8
20260504193800 23 302 4.8 11.3 0.00 0.00 0.00 44 1012.6
20260504193237 23 300 4.8 11.3 0.00 0.00 0.00 44 1012.6
20260504192724 23 298 3.2 11.3 0.00 0.00 0.00 45 1012.7
20260504192236 22 202 3.2 9.7 0.00 0.00 0.00 45 1012.8
20260504191724 22 284 3.2 14.5 0.00 0.00 0.00 48 1012.9
20260504191232 22 263 6.4 14.5 0.00 0.00 0.00 47 1012.7
20260504190800 23 271 1.6 14.5 0.00 0.00 0.00 48 1012.7
20260504190236 23 339 1.6 11.3 0.00 0.00 0.00 48 1012.7
20260504185723 22 338 3.2 11.3 0.00 0.00 0.00 50 1012.8
20260504185231 22 285 3.2 12.9 0.00 0.00 0.00 51 1012.8
20260504184739 22 314 4.8 14.5 0.00 0.00 0.00 50 1012.9
20260504184227 22 355 1.6 8.0 0.00 0.00 0.00 48 1013.0
20260504183735 22 295 3.2 8.0 0.00 0.00 0.00 49 1012.8
20260504183227 22 213 1.6 6.4 0.00 0.00 0.00 47 1012.9
20260504182734 23 240 3.2 6.4 0.00 0.00 0.00 47 1012.8
20260504182222 22 53 1.6 6.4 0.00 0.00 0.00 48 1012.9
20260504181730 22 277 3.2 6.4 0.00 0.00 0.00 49 1012.8
20260504181258 22 285 3.2 6.4 0.00 0.00 0.00 49 1012.8
20260504180734 22 345 1.6 6.4 0.00 0.00 0.00 50 1012.8
20260504180301 22 314 1.6 6.4 0.00 0.00 0.00 51 1012.8
20260504175737 21 333 1.6 12.9 0.00 0.00 0.00 54 1012.7
20260504175225 21 263 8.0 12.9 0.00 0.00 0.00 50 1012.6
20260504174733 21 267 3.2 9.7 0.00 0.00 0.00 50 1012.7
20260504174240 21 251 4.8 9.7 0.00 0.00 0.00 50 1012.6
20260504173728 22 161 3.2 6.4 0.00 0.00 0.00 50 1012.5
20260504173256 21 251 1.6 4.8 0.00 0.00 0.00 51 1012.7
20260504172735 21 267 1.6 6.4 0.00 0.00 0.00 50 1012.6
20260504172223 21 27 3.2 6.4 0.00 0.00 0.00 50 1012.7
20260504171810 21 131 0.0 11.3 0.00 0.00 0.00 53 1012.6
20260504171227 21 277 4.8 11.3 0.00 0.00 0.00 52 1012.6
20260504170735 21 273 1.6 6.4 0.00 0.00 0.00 55 1012.6
20260504170223 20 299 1.6 4.8 0.00 0.00 0.00 55 1012.8
20260504160306 19 34 1.6 3.2 0.00 0.00 0.00 53 1012.2
20260504160235 19 34 1.6 3.2 0.00 0.00 0.00 53 1012.2
20260504150755 15 82 0.0 0.0 0.00 0.00 0.00 73 1011.8
20260504150232 15 82 0.0 3.2 0.00 0.00 0.00 75 1011.8
20260504141259 11 105 0.0 0.0 0.00 0.00 0.00 86 1011.4
20260504141227 11 105 0.0 0.0 0.00 0.00 0.00 86 1011.4
20260504140735 11 105 0.0 0.0 0.00 0.00 0.00 87 1011.4
20260504140222 10 105 0.0 0.0 0.00 0.00 0.00 88 1011.3
20260504130739 9 105 0.0 0.0 0.00 0.00 0.00 92 1011.0
20260504130307 9 105 0.0 0.0 0.00 0.00 0.00 92 1010.9
20260504120259 9 52 0.0 1.6 0.00 0.00 0.00 90 1010.8
20260504110237 10 52 0.0 0.0 0.00 0.00 0.00 90 1010.8
20260504100230 11 52 0.0 0.0 0.00 0.00 0.00 87 1010.5
20260504081737 12 32 0.0 0.0 0.00 0.00 0.00 82 1010.6
20260504081225 12 32 0.0 0.0 0.00 0.00 0.00 82 1010.5
20260504080733 12 32 0.0 0.0 0.00 0.00 0.00 82 1010.6
20260504080240 13 32 0.0 0.0 0.00 0.00 0.00 81 1010.5
20260504070237 14 83 0.0 0.0 0.00 0.00 0.00 76 1010.8
20260504060222 16 83 0.0 3.2 0.00 0.00 0.00 71 1010.7
20260504050303 18 83 0.0 0.0 0.00 0.00 0.00 61 1010.6
20260504045722 18 83 0.0 3.2 0.00 0.00 0.00 62 1010.7
20260504045230 18 83 0.0 3.2 0.00 0.00 0.00 60 1010.7
20260504044738 18 83 0.0 0.0 0.00 0.00 0.00 59 1010.6
20260504044226 19 83 0.0 1.6 0.00 0.00 0.00 59 1010.7
20260504043734 20 83 1.6 1.6 0.00 0.00 0.00 57 1010.7
20260504043222 20 309 0.0 0.0 0.00 0.00 0.00 55 1010.6
20260504042808 20 309 0.0 0.0 0.00 0.00 0.00 54 1010.6
20260504042224 20 309 0.0 3.2 0.00 0.00 0.00 54 1010.7
20260504041732 20 309 0.0 3.2 0.00 0.00 0.00 53 1010.7
20260504041259 20 259 0.0 3.2 0.00 0.00 0.00 53 1010.6
20260504040736 21 250 1.6 3.2 0.00 0.00 0.00 51 1010.5
20260504040224 21 291 1.6 4.8 0.00 0.00 0.00 51 1010.6
20260504035735 21 313 1.6 4.8 0.00 0.00 0.00 51 1010.6
20260504035223 21 292 1.6 3.2 0.00 0.00 0.00 50 1010.6
20260504034809 21 290 1.6 3.2 0.00 0.00 0.00 49 1010.6
20260504034226 21 270 1.6 3.2 0.00 0.00 0.00 49 1010.5
20260504033734 21 320 0.0 3.2 0.00 0.00 0.00 49 1010.4
20260504033301 21 306 0.0 3.2 0.00 0.00 0.00 48 1010.4
20260504032737 22 284 0.0 0.0 0.00 0.00 0.00 47 1010.4
20260504032304 22 298 0.0 3.2 0.00 0.00 0.00 47 1010.3
20260504031721 22 327 0.0 4.8 0.00 0.00 0.00 46 1010.5
20260504031229 22 330 1.6 6.4 0.00 0.00 0.00 46 1010.5
20260504030737 22 317 1.6 6.4 0.00 0.00 0.00 45 1010.4
20260504030224 22 312 1.6 8.0 0.00 0.00 0.00 44 1010.3
20260504025810 23 325 3.2 12.9 0.00 0.00 0.00 44 1010.3
20260504025227 23 327 6.4 12.9 0.00 0.00 0.00 43 1010.3
20260504024739 23 325 3.2 12.9 0.00 0.00 0.00 43 1010.2
20260504024227 23 297 3.2 12.9 0.00 0.00 0.00 42 1010.1
20260504023755 23 302 3.2 6.4 0.00 0.00 0.00 42 1010.2
20260504023723 23 302 3.2 6.4 0.00 0.00 0.00 42 1010.2
20260504023231 24 295 1.6 6.4 0.00 0.00 0.00 42 1010.3
20260504022758 24 340 1.6 6.4 0.00 0.00 0.00 42 1010.2
20260504022235 25 302 1.6 6.4 0.00 0.00 0.00 41 1010.2
20260504021723 25 300 3.2 12.9 0.00 0.00 0.00 40 1010.3
20260504021231 25 9 4.8 12.9 0.00 0.00 0.00 40 1010.4
20260504020739 25 317 4.8 16.1 0.00 0.00 0.00 40 1010.3
20260504020227 25 344 4.8 16.1 0.00 0.00 0.00 40 1010.3
20260504015734 26 304 6.4 16.1 0.00 0.00 0.00 39 1010.4
20260504015226 26 329 8.0 16.1 0.00 0.00 0.00 38 1010.5
20260504014754 27 343 1.6 9.7 0.00 0.00 0.00 39 1010.5